owner,sensor,date,latitude,longitude,sea_surface_height_above_sea_level,qcFlag 
COMPS,ioos:station:USF.COMPS:ANC:1,2009-07-01T00:00:00Z,28.1930,-82.7890,0.141,1111122 
COMPS,ioos:station:USF.COMPS:ANC:1,2009-07-01T00:06:00Z,28.1930,-82.7890,0.133,1111122 
COMPS,ioos:station:USF.COMPS:ANC:1,2009-07-01T00:12:00Z,28.1930,-82.7890,0.131,1111122 
COMPS,ioos:station:USF.COMPS:ANC:1,2009-07-01T00:18:00Z,28.1930,-82.7890,0.132,1111122 
COMPS,ioos:station:USF.COMPS:ANC:1,2009-07-01T00:24:00Z,28.1930,-82.7890,0.137,1111122 
COMPS,ioos:station:USF.COMPS:ANC:1,2009-07-01T00:30:00Z,28.1930,-82.7890,0.145,1111122 
COMPS,ioos:station:USF.COMPS:ANC:1,2009-07-01T00:36:00Z,28.1930,-82.7890,0.134,1111122 
COMPS,ioos:station:USF.COMPS:ANC:1,2009-07-01T00:42:00Z,28.1930,-82.7890,0.139,1111122 
COMPS,ioos:station:USF.COMPS:ANC:1,2009-07-01T00:48:00Z,28.1930,-82.7890,0.165,1111122 
COMPS,ioos:station:USF.COMPS:ANC:1,2009-07-01T00:54:00Z,28.1930,-82.7890,0.168,1111122 
COMPS,ioos:station:USF.COMPS:ANC:1,2009-07-01T01:00:00Z,28.1930,-82.7890,0.164,1111122 
COMPS,ioos:station:USF.COMPS:ANC:1,2009-07-01T01:06:00Z,28.1930,-82.7890,0.176,1111122 
COMPS,ioos:station:USF.COMPS:ANC:1,2009-07-01T01:12:00Z,28.1930,-82.7890,0.184,1111122 
COMPS,ioos:station:USF.COMPS:ANC:1,2009-07-01T01:18:00Z,28.1930,-82.7890,0.193,1111122 
COMPS,ioos:station:USF.COMPS:ANC:1,2009-07-01T01:24:00Z,28.1930,-82.7890,0.184,1111122 
COMPS,ioos:station:USF.COMPS:ANC:1,2009-07-01T01:30:00Z,28.1930,-82.7890,0.188,1111122 
COMPS,ioos:station:USF.COMPS:ANC:1,2009-07-01T01:36:00Z,28.1930,-82.7890,0.191,1111122 
COMPS,ioos:station:USF.COMPS:ANC:1,2009-07-01T01:42:00Z,28.1930,-82.7890,0.2,1111122 
COMPS,ioos:station:USF.COMPS:ANC:1,2009-07-01T01:48:00Z,28.1930,-82.7890,0.208,1111122 
COMPS,ioos:station:USF.COMPS:ANC:1,2009-07-01T01:54:00Z,28.1930,-82.7890,0.217,1111122 
COMPS,ioos:station:USF.COMPS:ANC:1,2009-07-01T02:00:00Z,28.1930,-82.7890,0.218,1111122 
COMPS,ioos:station:USF.COMPS:ANC:1,2009-07-01T02:06:00Z,28.1930,-82.7890,0.219,1111122 
COMPS,ioos:station:USF.COMPS:ANC:1,2009-07-01T02:12:00Z,28.1930,-82.7890,0.227,1111122 
COMPS,ioos:station:USF.COMPS:ANC:1,2009-07-01T02:18:00Z,28.1930,-82.7890,0.234,1111122 
COMPS,ioos:station:USF.COMPS:ANC:1,2009-07-01T02:24:00Z,28.1930,-82.7890,0.243,1111122 
COMPS,ioos:station:USF.COMPS:ANC:1,2009-07-01T02:30:00Z,28.1930,-82.7890,0.244,1111122 
COMPS,ioos:station:USF.COMPS:ANC:1,2009-07-01T02:36:00Z,28.1930,-82.7890,0.244,1111122 
COMPS,ioos:station:USF.COMPS:ANC:1,2009-07-01T02:42:00Z,28.1930,-82.7890,0.239,1111122 
COMPS,ioos:station:USF.COMPS:ANC:1,2009-07-01T02:48:00Z,28.1930,-82.7890,0.231,1111122 
COMPS,ioos:station:USF.COMPS:ANC:1,2009-07-01T02:54:00Z,28.1930,-82.7890,0.216,1111122 
COMPS,ioos:station:USF.COMPS:ANC:1,2009-07-01T03:00:00Z,28.1930,-82.7890,0.201,1111122 
COMPS,ioos:station:USF.COMPS:ANC:1,2009-07-01T03:06:00Z,28.1930,-82.7890,0.187,1111122 
COMPS,ioos:station:USF.COMPS:ANC:1,2009-07-01T03:12:00Z,28.1930,-82.7890,0.18,1111122 
COMPS,ioos:station:USF.COMPS:ANC:1,2009-07-01T03:18:00Z,28.1930,-82.7890,0.177,1111122 
COMPS,ioos:station:USF.COMPS:ANC:1,2009-07-01T03:24:00Z,28.1930,-82.7890,0.17,1111122 
COMPS,ioos:station:USF.COMPS:ANC:1,2009-07-01T03:30:00Z,28.1930,-82.7890,0.162,1111122 
COMPS,ioos:station:USF.COMPS:ANC:1,2009-07-01T03:36:00Z,28.1930,-82.7890,0.154,1111122 
COMPS,ioos:station:USF.COMPS:ANC:1,2009-07-01T03:42:00Z,28.1930,-82.7890,0.151,1111122 
COMPS,ioos:station:USF.COMPS:ANC:1,2009-07-01T03:48:00Z,28.1930,-82.7890,0.147,1111122 
COMPS,ioos:station:USF.COMPS:ANC:1,2009-07-01T03:54:00Z,28.1930,-82.7890,0.14,1111122 
COMPS,ioos:station:USF.COMPS:ANC:1,2009-07-01T04:00:00Z,28.1930,-82.7890,0.132,1111122 
COMPS,ioos:station:USF.COMPS:ANC:1,2009-07-01T04:06:00Z,28.1930,-82.7890,0.134,1111122 
COMPS,ioos:station:USF.COMPS:ANC:1,2009-07-01T04:12:00Z,28.1930,-82.7890,0.13,1111122 
COMPS,ioos:station:USF.COMPS:ANC:1,2009-07-01T04:18:00Z,28.1930,-82.7890,0.13,1111122 
COMPS,ioos:station:USF.COMPS:ANC:1,2009-07-01T04:24:00Z,28.1930,-82.7890,0.135,1111122 
COMPS,ioos:station:USF.COMPS:ANC:1,2009-07-01T04:30:00Z,28.1930,-82.7890,0.142,1111122 
COMPS,ioos:station:USF.COMPS:ANC:1,2009-07-01T04:36:00Z,28.1930,-82.7890,0.145,1111122 
COMPS,ioos:station:USF.COMPS:ANC:1,2009-07-01T04:42:00Z,28.1930,-82.7890,0.141,1111122 
COMPS,ioos:station:USF.COMPS:ANC:1,2009-07-01T04:48:00Z,28.1930,-82.7890,0.138,1111122 
COMPS,ioos:station:USF.COMPS:ANC:1,2009-07-01T04:54:00Z,28.1930,-82.7890,0.138,1111122 
COMPS,ioos:station:USF.COMPS:ANC:1,2009-07-01T05:00:00Z,28.1930,-82.7890,0.143,1111122 
COMPS,ioos:station:USF.COMPS:ANC:1,2009-07-01T05:06:00Z,28.1930,-82.7890,0.141,1111122 
COMPS,ioos:station:USF.COMPS:ANC:1,2009-07-01T05:12:00Z,28.1930,-82.7890,0.144,1111122 
COMPS,ioos:station:USF.COMPS:ANC:1,2009-07-01T05:18:00Z,28.1930,-82.7890,0.148,1111122 
COMPS,ioos:station:USF.COMPS:ANC:1,2009-07-01T05:24:00Z,28.1930,-82.7890,0.154,1111122 
COMPS,ioos:station:USF.COMPS:ANC:1,2009-07-01T05:30:00Z,28.1930,-82.7890,0.171,1111122 
COMPS,ioos:station:USF.COMPS:ANC:1,2009-07-01T05:36:00Z,28.1930,-82.7890,0.18,1111122 
COMPS,ioos:station:USF.COMPS:ANC:1,2009-07-01T05:42:00Z,28.1930,-82.7890,0.168,1111122 
COMPS,ioos:station:USF.COMPS:ANC:1,2009-07-01T05:48:00Z,28.1930,-82.7890,0.156,1111122 
COMPS,ioos:station:USF.COMPS:ANC:1,2009-07-01T05:54:00Z,28.1930,-82.7890,0.154,1111122 
COMPS,ioos:station:USF.COMPS:ANC:1,2009-07-01T06:00:00Z,28.1930,-82.7890,0.151,1111122 
COMPS,ioos:station:USF.COMPS:ANC:1,2009-07-01T06:06:00Z,28.1930,-82.7890,0.148,1111122 
COMPS,ioos:station:USF.COMPS:ANC:1,2009-07-01T06:12:00Z,28.1930,-82.7890,0.15,1111122 
COMPS,ioos:station:USF.COMPS:ANC:1,2009-07-01T06:18:00Z,28.1930,-82.7890,0.16,1111122 
COMPS,ioos:station:USF.COMPS:ANC:1,2009-07-01T06:24:00Z,28.1930,-82.7890,0.164,1111122 
COMPS,ioos:station:USF.COMPS:ANC:1,2009-07-01T06:30:00Z,28.1930,-82.7890,0.16,1111122 
COMPS,ioos:station:USF.COMPS:ANC:1,2009-07-01T06:36:00Z,28.1930,-82.7890,0.157,1111122 
COMPS,ioos:station:USF.COMPS:ANC:1,2009-07-01T06:42:00Z,28.1930,-82.7890,0.161,1111122 
COMPS,ioos:station:USF.COMPS:ANC:1,2009-07-01T06:48:00Z,28.1930,-82.7890,0.161,1111122 
COMPS,ioos:station:USF.COMPS:ANC:1,2009-07-01T06:54:00Z,28.1930,-82.7890,0.168,1111122 
COMPS,ioos:station:USF.COMPS:ANC:1,2009-07-01T07:00:00Z,28.1930,-82.7890,0.145,1111122 
COMPS,ioos:station:USF.COMPS:ANC:1,2009-07-01T07:06:00Z,28.1930,-82.7890,0.127,1111122 
COMPS,ioos:station:USF.COMPS:ANC:1,2009-07-01T07:12:00Z,28.1930,-82.7890,0.157,1111122 
COMPS,ioos:station:USF.COMPS:ANC:1,2009-07-01T07:18:00Z,28.1930,-82.7890,0.175,1111122 
COMPS,ioos:station:USF.COMPS:ANC:1,2009-07-01T07:24:00Z,28.1930,-82.7890,0.198,1111122 
COMPS,ioos:station:USF.COMPS:ANC:1,2009-07-01T07:30:00Z,28.1930,-82.7890,0.214,1111122 
COMPS,ioos:station:USF.COMPS:ANC:1,2009-07-01T07:36:00Z,28.1930,-82.7890,0.228,1111122 
COMPS,ioos:station:USF.COMPS:ANC:1,2009-07-01T07:42:00Z,28.1930,-82.7890,0.238,1111122 
COMPS,ioos:station:USF.COMPS:ANC:1,2009-07-01T07:48:00Z,28.1930,-82.7890,0.254,1111122 
COMPS,ioos:station:USF.COMPS:ANC:1,2009-07-01T07:54:00Z,28.1930,-82.7890,0.268,1111122 
COMPS,ioos:station:USF.COMPS:ANC:1,2009-07-01T08:00:00Z,28.1930,-82.7890,0.275,1111122 
COMPS,ioos:station:USF.COMPS:ANC:1,2009-07-01T08:06:00Z,28.1930,-82.7890,0.304,1111122 
COMPS,ioos:station:USF.COMPS:ANC:1,2009-07-01T08:12:00Z,28.1930,-82.7890,0.313,1111122 
COMPS,ioos:station:USF.COMPS:ANC:1,2009-07-01T08:18:00Z,28.1930,-82.7890,0.318,1111122 
COMPS,ioos:station:USF.COMPS:ANC:1,2009-07-01T08:24:00Z,28.1930,-82.7890,0.326,1111122 
COMPS,ioos:station:USF.COMPS:ANC:1,2009-07-01T08:30:00Z,28.1930,-82.7890,0.329,1111122 
COMPS,ioos:station:USF.COMPS:ANC:1,2009-07-01T08:36:00Z,28.1930,-82.7890,0.366,1111122 
COMPS,ioos:station:USF.COMPS:ANC:1,2009-07-01T08:42:00Z,28.1930,-82.7890,0.38,1111122 
COMPS,ioos:station:USF.COMPS:ANC:1,2009-07-01T08:48:00Z,28.1930,-82.7890,0.382,1111122 
COMPS,ioos:station:USF.COMPS:ANC:1,2009-07-01T08:54:00Z,28.1930,-82.7890,0.451,1111122 
COMPS,ioos:station:USF.COMPS:ANC:1,2009-07-01T09:00:00Z,28.1930,-82.7890,0.471,1111122 
COMPS,ioos:station:USF.COMPS:ANC:1,2009-07-01T09:06:00Z,28.1930,-82.7890,0.4,1111122 
COMPS,ioos:station:USF.COMPS:ANC:1,2009-07-01T09:12:00Z,28.1930,-82.7890,0.396,1111122 
COMPS,ioos:station:USF.COMPS:ANC:1,2009-07-01T09:18:00Z,28.1930,-82.7890,0.466,1111122 
COMPS,ioos:station:USF.COMPS:ANC:1,2009-07-01T09:24:00Z,28.1930,-82.7890,0.496,1111122 
COMPS,ioos:station:USF.COMPS:ANC:1,2009-07-01T09:30:00Z,28.1930,-82.7890,0.439,1111122 
COMPS,ioos:station:USF.COMPS:ANC:1,2009-07-01T09:36:00Z,28.1930,-82.7890,0.431,1111122 
COMPS,ioos:station:USF.COMPS:ANC:1,2009-07-01T09:42:00Z,28.1930,-82.7890,0.456,1111122 
COMPS,ioos:station:USF.COMPS:ANC:1,2009-07-01T09:48:00Z,28.1930,-82.7890,0.463,1111122 
COMPS,ioos:station:USF.COMPS:ANC:1,2009-07-01T09:54:00Z,28.1930,-82.7890,0.474,1111122 
COMPS,ioos:station:USF.COMPS:ANC:1,2009-07-01T10:00:00Z,28.1930,-82.7890,0.467,1111122 
COMPS,ioos:station:USF.COMPS:ANC:1,2009-07-01T10:06:00Z,28.1930,-82.7890,0.458,1111122 
COMPS,ioos:station:USF.COMPS:ANC:1,2009-07-01T10:12:00Z,28.1930,-82.7890,0.481,1111122 
COMPS,ioos:station:USF.COMPS:ANC:1,2009-07-01T10:18:00Z,28.1930,-82.7890,0.484,1111122 
COMPS,ioos:station:USF.COMPS:ANC:1,2009-07-01T10:24:00Z,28.1930,-82.7890,0.468,1111122 
COMPS,ioos:station:USF.COMPS:ANC:1,2009-07-01T10:30:00Z,28.1930,-82.7890,0.457,1111122 
COMPS,ioos:station:USF.COMPS:ANC:1,2009-07-01T10:36:00Z,28.1930,-82.7890,0.47,1111122 
COMPS,ioos:station:USF.COMPS:ANC:1,2009-07-01T10:42:00Z,28.1930,-82.7890,0.464,1111122 
COMPS,ioos:station:USF.COMPS:ANC:1,2009-07-01T10:48:00Z,28.1930,-82.7890,0.454,1111122 
COMPS,ioos:station:USF.COMPS:ANC:1,2009-07-01T10:54:00Z,28.1930,-82.7890,0.435,1111122 
COMPS,ioos:station:USF.COMPS:ANC:1,2009-07-01T11:00:00Z,28.1930,-82.7890,0.415,1111122 
COMPS,ioos:station:USF.COMPS:ANC:1,2009-07-01T11:06:00Z,28.1930,-82.7890,0.436,1111122 
COMPS,ioos:station:USF.COMPS:ANC:1,2009-07-01T11:12:00Z,28.1930,-82.7890,0.428,1111122 
COMPS,ioos:station:USF.COMPS:ANC:1,2009-07-01T11:18:00Z,28.1930,-82.7890,0.439,1111122 
COMPS,ioos:station:USF.COMPS:ANC:1,2009-07-01T11:24:00Z,28.1930,-82.7890,0.422,1111122 
COMPS,ioos:station:USF.COMPS:ANC:1,2009-07-01T11:30:00Z,28.1930,-82.7890,0.413,1111122 
COMPS,ioos:station:USF.COMPS:ANC:1,2009-07-01T11:36:00Z,28.1930,-82.7890,0.42,1111122 
COMPS,ioos:station:USF.COMPS:ANC:1,2009-07-01T11:42:00Z,28.1930,-82.7890,0.44,1111122 
COMPS,ioos:station:USF.COMPS:ANC:1,2009-07-01T11:48:00Z,28.1930,-82.7890,0.47,1111122 
COMPS,ioos:station:USF.COMPS:ANC:1,2009-07-01T11:54:00Z,28.1930,-82.7890,0.491,1111122 
COMPS,ioos:station:USF.COMPS:ANC:1,2009-07-01T12:00:00Z,28.1930,-82.7890,0.506,1111122 
COMPS,ioos:station:USF.COMPS:ANC:1,2009-07-01T12:06:00Z,28.1930,-82.7890,0.502,1111122 
COMPS,ioos:station:USF.COMPS:ANC:1,2009-07-01T12:12:00Z,28.1930,-82.7890,0.5,1111122 
COMPS,ioos:station:USF.COMPS:ANC:1,2009-07-01T12:18:00Z,28.1930,-82.7890,0.5,1111122 
COMPS,ioos:station:USF.COMPS:ANC:1,2009-07-01T12:24:00Z,28.1930,-82.7890,0.491,1111122 
COMPS,ioos:station:USF.COMPS:ANC:1,2009-07-01T12:30:00Z,28.1930,-82.7890,0.47,1111122 
COMPS,ioos:station:USF.COMPS:ANC:1,2009-07-01T12:36:00Z,28.1930,-82.7890,0.451,1111122 
COMPS,ioos:station:USF.COMPS:ANC:1,2009-07-01T12:42:00Z,28.1930,-82.7890,0.443,1111122 
COMPS,ioos:station:USF.COMPS:ANC:1,2009-07-01T12:48:00Z,28.1930,-82.7890,0.428,1111122 
COMPS,ioos:station:USF.COMPS:ANC:1,2009-07-01T12:54:00Z,28.1930,-82.7890,0.426,1111122 
COMPS,ioos:station:USF.COMPS:ANC:1,2009-07-01T13:00:00Z,28.1930,-82.7890,0.429,1111122 
COMPS,ioos:station:USF.COMPS:ANC:1,2009-07-01T13:06:00Z,28.1930,-82.7890,0.419,1111122 
COMPS,ioos:station:USF.COMPS:ANC:1,2009-07-01T13:12:00Z,28.1930,-82.7890,0.426,1111122 
COMPS,ioos:station:USF.COMPS:ANC:1,2009-07-01T13:18:00Z,28.1930,-82.7890,0.433,1111122 
COMPS,ioos:station:USF.COMPS:ANC:1,2009-07-01T13:24:00Z,28.1930,-82.7890,0.427,1111122 
COMPS,ioos:station:USF.COMPS:ANC:1,2009-07-01T13:30:00Z,28.1930,-82.7890,0.421,1111122 
COMPS,ioos:station:USF.COMPS:ANC:1,2009-07-01T13:36:00Z,28.1930,-82.7890,0.383,1111122 
COMPS,ioos:station:USF.COMPS:ANC:1,2009-07-01T13:42:00Z,28.1930,-82.7890,0.377,1111122 
COMPS,ioos:station:USF.COMPS:ANC:1,2009-07-01T13:48:00Z,28.1930,-82.7890,0.391,1111122 
COMPS,ioos:station:USF.COMPS:ANC:1,2009-07-01T13:54:00Z,28.1930,-82.7890,0.371,1111122 
COMPS,ioos:station:USF.COMPS:ANC:1,2009-07-01T14:00:00Z,28.1930,-82.7890,0.362,1111122 
COMPS,ioos:station:USF.COMPS:ANC:1,2009-07-01T14:06:00Z,28.1930,-82.7890,0.35,1111122 
COMPS,ioos:station:USF.COMPS:ANC:1,2009-07-01T14:12:00Z,28.1930,-82.7890,0.337,1111122 
COMPS,ioos:station:USF.COMPS:ANC:1,2009-07-01T14:18:00Z,28.1930,-82.7890,0.32,1111122 
COMPS,ioos:station:USF.COMPS:ANC:1,2009-07-01T14:24:00Z,28.1930,-82.7890,0.311,1111122 
COMPS,ioos:station:USF.COMPS:ANC:1,2009-07-01T14:30:00Z,28.1930,-82.7890,0.305,1111122 
COMPS,ioos:station:USF.COMPS:ANC:1,2009-07-01T14:36:00Z,28.1930,-82.7890,0.306,1111122 
COMPS,ioos:station:USF.COMPS:ANC:1,2009-07-01T14:42:00Z,28.1930,-82.7890,0.29,1111122 
COMPS,ioos:station:USF.COMPS:ANC:1,2009-07-01T14:48:00Z,28.1930,-82.7890,0.269,1111122 
COMPS,ioos:station:USF.COMPS:ANC:1,2009-07-01T14:54:00Z,28.1930,-82.7890,0.26,1111122 
COMPS,ioos:station:USF.COMPS:ANC:1,2009-07-01T15:00:00Z,28.1930,-82.7890,0.256,1111122 
COMPS,ioos:station:USF.COMPS:ANC:1,2009-07-01T15:06:00Z,28.1930,-82.7890,0.245,1111122 
COMPS,ioos:station:USF.COMPS:ANC:1,2009-07-01T15:12:00Z,28.1930,-82.7890,0.213,1111122 
COMPS,ioos:station:USF.COMPS:ANC:1,2009-07-01T15:18:00Z,28.1930,-82.7890,0.197,1111122 
COMPS,ioos:station:USF.COMPS:ANC:1,2009-07-01T15:24:00Z,28.1930,-82.7890,0.196,1111122 
COMPS,ioos:station:USF.COMPS:ANC:1,2009-07-01T15:30:00Z,28.1930,-82.7890,0.195,1111122 
COMPS,ioos:station:USF.COMPS:ANC:1,2009-07-01T15:36:00Z,28.1930,-82.7890,0.177,1111122 
COMPS,ioos:station:USF.COMPS:ANC:1,2009-07-01T15:42:00Z,28.1930,-82.7890,0.153,1111122 
COMPS,ioos:station:USF.COMPS:ANC:1,2009-07-01T15:48:00Z,28.1930,-82.7890,0.139,1111122 
COMPS,ioos:station:USF.COMPS:ANC:1,2009-07-01T15:54:00Z,28.1930,-82.7890,0.136,1111122 
COMPS,ioos:station:USF.COMPS:ANC:1,2009-07-01T16:00:00Z,28.1930,-82.7890,0.179,1111122 
COMPS,ioos:station:USF.COMPS:ANC:1,2009-07-01T16:06:00Z,28.1930,-82.7890,0.212,1111122 
COMPS,ioos:station:USF.COMPS:ANC:1,2009-07-01T16:12:00Z,28.1930,-82.7890,0.19,1111122 
COMPS,ioos:station:USF.COMPS:ANC:1,2009-07-01T16:18:00Z,28.1930,-82.7890,0.113,1111122 
COMPS,ioos:station:USF.COMPS:ANC:1,2009-07-01T16:24:00Z,28.1930,-82.7890,0.06,1111122 
COMPS,ioos:station:USF.COMPS:ANC:1,2009-07-01T16:30:00Z,28.1930,-82.7890,0.045,1111122 
COMPS,ioos:station:USF.COMPS:ANC:1,2009-07-01T16:36:00Z,28.1930,-82.7890,0.028,1111122 
COMPS,ioos:station:USF.COMPS:ANC:1,2009-07-01T16:42:00Z,28.1930,-82.7890,-0.004,1111122 
COMPS,ioos:station:USF.COMPS:ANC:1,2009-07-01T16:48:00Z,28.1930,-82.7890,-0.049,1111122 
COMPS,ioos:station:USF.COMPS:ANC:1,2009-07-01T16:54:00Z,28.1930,-82.7890,-0.072,1111122 
COMPS,ioos:station:USF.COMPS:ANC:1,2009-07-01T17:00:00Z,28.1930,-82.7890,-0.097,1111122 
COMPS,ioos:station:USF.COMPS:ANC:1,2009-07-01T17:06:00Z,28.1930,-82.7890,-0.114,1111122 
COMPS,ioos:station:USF.COMPS:ANC:1,2009-07-01T17:12:00Z,28.1930,-82.7890,-0.123,1111122 
COMPS,ioos:station:USF.COMPS:ANC:1,2009-07-01T17:18:00Z,28.1930,-82.7890,-0.13,1111122 
COMPS,ioos:station:USF.COMPS:ANC:1,2009-07-01T17:24:00Z,28.1930,-82.7890,-0.145,1111122 
COMPS,ioos:station:USF.COMPS:ANC:1,2009-07-01T17:30:00Z,28.1930,-82.7890,-0.159,1111122 
COMPS,ioos:station:USF.COMPS:ANC:1,2009-07-01T17:36:00Z,28.1930,-82.7890,-0.175,1111122 
COMPS,ioos:station:USF.COMPS:ANC:1,2009-07-01T17:42:00Z,28.1930,-82.7890,-0.207,1111122 
COMPS,ioos:station:USF.COMPS:ANC:1,2009-07-01T17:48:00Z,28.1930,-82.7890,-0.239,1111122 
COMPS,ioos:station:USF.COMPS:ANC:1,2009-07-01T17:54:00Z,28.1930,-82.7890,-0.253,1111122 
COMPS,ioos:station:USF.COMPS:ANC:1,2009-07-01T18:00:00Z,28.1930,-82.7890,-0.265,1111122 
COMPS,ioos:station:USF.COMPS:ANC:1,2009-07-01T18:06:00Z,28.1930,-82.7890,-0.27,1111122 
COMPS,ioos:station:USF.COMPS:ANC:1,2009-07-01T18:12:00Z,28.1930,-82.7890,-0.282,1111122 
COMPS,ioos:station:USF.COMPS:ANC:1,2009-07-01T18:18:00Z,28.1930,-82.7890,-0.29,1111122 
COMPS,ioos:station:USF.COMPS:ANC:1,2009-07-01T18:24:00Z,28.1930,-82.7890,-0.289,1111122 
COMPS,ioos:station:USF.COMPS:ANC:1,2009-07-01T18:30:00Z,28.1930,-82.7890,-0.279,1111122 
COMPS,ioos:station:USF.COMPS:ANC:1,2009-07-01T18:36:00Z,28.1930,-82.7890,-0.256,1111122 
COMPS,ioos:station:USF.COMPS:ANC:1,2009-07-01T18:42:00Z,28.1930,-82.7890,-0.236,1111122 
COMPS,ioos:station:USF.COMPS:ANC:1,2009-07-01T18:48:00Z,28.1930,-82.7890,-0.213,1111122 
COMPS,ioos:station:USF.COMPS:ANC:1,2009-07-01T18:54:00Z,28.1930,-82.7890,-0.174,1111122 
COMPS,ioos:station:USF.COMPS:ANC:1,2009-07-01T19:00:00Z,28.1930,-82.7890,-0.15,1111122 
COMPS,ioos:station:USF.COMPS:ANC:1,2009-07-01T19:06:00Z,28.1930,-82.7890,-0.158,1111122 
COMPS,ioos:station:USF.COMPS:ANC:1,2009-07-01T19:12:00Z,28.1930,-82.7890,-0.185,1111122 
COMPS,ioos:station:USF.COMPS:ANC:1,2009-07-01T19:18:00Z,28.1930,-82.7890,-0.215,1111122 
COMPS,ioos:station:USF.COMPS:ANC:1,2009-07-01T19:24:00Z,28.1930,-82.7890,-0.22,1111122 
COMPS,ioos:station:USF.COMPS:ANC:1,2009-07-01T19:30:00Z,28.1930,-82.7890,-0.219,1111122 
COMPS,ioos:station:USF.COMPS:ANC:1,2009-07-01T19:36:00Z,28.1930,-82.7890,-0.224,1111122 
COMPS,ioos:station:USF.COMPS:ANC:1,2009-07-01T19:42:00Z,28.1930,-82.7890,-0.225,1111122 
COMPS,ioos:station:USF.COMPS:ANC:1,2009-07-01T19:48:00Z,28.1930,-82.7890,-0.226,1111122 
COMPS,ioos:station:USF.COMPS:ANC:1,2009-07-01T19:54:00Z,28.1930,-82.7890,-0.222,1111122 
COMPS,ioos:station:USF.COMPS:ANC:1,2009-07-01T20:00:00Z,28.1930,-82.7890,-0.211,1111122 
COMPS,ioos:station:USF.COMPS:ANC:1,2009-07-01T20:06:00Z,28.1930,-82.7890,-0.194,1111122 
COMPS,ioos:station:USF.COMPS:ANC:1,2009-07-01T20:12:00Z,28.1930,-82.7890,-0.172,1111122 
COMPS,ioos:station:USF.COMPS:ANC:1,2009-07-01T20:18:00Z,28.1930,-82.7890,-0.151,1111122 
COMPS,ioos:station:USF.COMPS:ANC:1,2009-07-01T20:24:00Z,28.1930,-82.7890,-0.14,1111122 
COMPS,ioos:station:USF.COMPS:ANC:1,2009-07-01T20:30:00Z,28.1930,-82.7890,-0.119,1111122 
COMPS,ioos:station:USF.COMPS:ANC:1,2009-07-01T20:36:00Z,28.1930,-82.7890,-0.072,1111122 
COMPS,ioos:station:USF.COMPS:ANC:1,2009-07-01T20:42:00Z,28.1930,-82.7890,-0.05,1111122 
COMPS,ioos:station:USF.COMPS:ANC:1,2009-07-01T20:48:00Z,28.1930,-82.7890,-0.08,1111122 
COMPS,ioos:station:USF.COMPS:ANC:1,2009-07-01T20:54:00Z,28.1930,-82.7890,-0.117,1111122 
COMPS,ioos:station:USF.COMPS:ANC:1,2009-07-01T21:00:00Z,28.1930,-82.7890,-0.148,1111122 
COMPS,ioos:station:USF.COMPS:ANC:1,2009-07-01T21:06:00Z,28.1930,-82.7890,-0.171,1111122 
COMPS,ioos:station:USF.COMPS:ANC:1,2009-07-01T21:12:00Z,28.1930,-82.7890,-0.184,1111122 
COMPS,ioos:station:USF.COMPS:ANC:1,2009-07-01T21:18:00Z,28.1930,-82.7890,-0.181,1111122 
COMPS,ioos:station:USF.COMPS:ANC:1,2009-07-01T21:24:00Z,28.1930,-82.7890,-0.17,1111122 
COMPS,ioos:station:USF.COMPS:ANC:1,2009-07-01T21:30:00Z,28.1930,-82.7890,-0.16,1111122 
COMPS,ioos:station:USF.COMPS:ANC:1,2009-07-01T21:36:00Z,28.1930,-82.7890,-0.15,1111122 
COMPS,ioos:station:USF.COMPS:ANC:1,2009-07-01T21:42:00Z,28.1930,-82.7890,-0.146,1111122 
COMPS,ioos:station:USF.COMPS:ANC:1,2009-07-01T21:48:00Z,28.1930,-82.7890,-0.153,1111122 
COMPS,ioos:station:USF.COMPS:ANC:1,2009-07-01T21:54:00Z,28.1930,-82.7890,-0.164,1111122 
COMPS,ioos:station:USF.COMPS:ANC:1,2009-07-01T22:00:00Z,28.1930,-82.7890,-0.159,1111122 
COMPS,ioos:station:USF.COMPS:ANC:1,2009-07-01T22:06:00Z,28.1930,-82.7890,-0.136,1111122 
COMPS,ioos:station:USF.COMPS:ANC:1,2009-07-01T22:12:00Z,28.1930,-82.7890,-0.116,1111122 
COMPS,ioos:station:USF.COMPS:ANC:1,2009-07-01T22:18:00Z,28.1930,-82.7890,-0.104,1111122 
COMPS,ioos:station:USF.COMPS:ANC:1,2009-07-01T22:24:00Z,28.1930,-82.7890,-0.086,1111122 
COMPS,ioos:station:USF.COMPS:ANC:1,2009-07-01T22:30:00Z,28.1930,-82.7890,-0.058,1111122 
COMPS,ioos:station:USF.COMPS:ANC:1,2009-07-01T22:36:00Z,28.1930,-82.7890,-0.029,1111122 
COMPS,ioos:station:USF.COMPS:ANC:1,2009-07-01T22:42:00Z,28.1930,-82.7890,-0.009,1111122 
COMPS,ioos:station:USF.COMPS:ANC:1,2009-07-01T22:48:00Z,28.1930,-82.7890,0.001,1111122 
COMPS,ioos:station:USF.COMPS:ANC:1,2009-07-01T22:54:00Z,28.1930,-82.7890,0.016,1111122 
COMPS,ioos:station:USF.COMPS:ANC:1,2009-07-01T23:00:00Z,28.1930,-82.7890,0.034,1111122 
COMPS,ioos:station:USF.COMPS:ANC:1,2009-07-01T23:06:00Z,28.1930,-82.7890,0.043,1111122 
COMPS,ioos:station:USF.COMPS:ANC:1,2009-07-01T23:12:00Z,28.1930,-82.7890,0.046,1111122 
COMPS,ioos:station:USF.COMPS:ANC:1,2009-07-01T23:18:00Z,28.1930,-82.7890,0.056,1111122 
COMPS,ioos:station:USF.COMPS:ANC:1,2009-07-01T23:24:00Z,28.1930,-82.7890,0.06,1111122 
COMPS,ioos:station:USF.COMPS:ANC:1,2009-07-01T23:30:00Z,28.1930,-82.7890,0.059,1111122 
COMPS,ioos:station:USF.COMPS:ANC:1,2009-07-01T23:36:00Z,28.1930,-82.7890,0.066,1111122 
COMPS,ioos:station:USF.COMPS:ANC:1,2009-07-01T23:42:00Z,28.1930,-82.7890,0.071,1111122 
COMPS,ioos:station:USF.COMPS:ANC:1,2009-07-01T23:48:00Z,28.1930,-82.7890,0.072,1111122 
COMPS,ioos:station:USF.COMPS:ANC:1,2009-07-01T23:54:00Z,28.1930,-82.7890,0.074,1111122 
COMPS,ioos:station:USF.COMPS:ANC:1,2009-07-02T00:00:00Z,28.1930,-82.7890,0.078,1111122 
COMPS,ioos:station:USF.COMPS:ANC:1,2009-07-02T00:06:00Z,28.1930,-82.7890,0.077,1111122 
COMPS,ioos:station:USF.COMPS:ANC:1,2009-07-02T00:12:00Z,28.1930,-82.7890,0.087,1111122 
COMPS,ioos:station:USF.COMPS:ANC:1,2009-07-02T00:18:00Z,28.1930,-82.7890,0.093,1111122 
COMPS,ioos:station:USF.COMPS:ANC:1,2009-07-02T00:24:00Z,28.1930,-82.7890,0.099,1111122 
COMPS,ioos:station:USF.COMPS:ANC:1,2009-07-02T00:30:00Z,28.1930,-82.7890,0.102,1111122 
COMPS,ioos:station:USF.COMPS:ANC:1,2009-07-02T00:36:00Z,28.1930,-82.7890,0.107,1111122 
COMPS,ioos:station:USF.COMPS:ANC:1,2009-07-02T00:42:00Z,28.1930,-82.7890,0.129,1111122 
COMPS,ioos:station:USF.COMPS:ANC:1,2009-07-02T00:48:00Z,28.1930,-82.7890,0.145,1111122 
COMPS,ioos:station:USF.COMPS:ANC:1,2009-07-02T00:54:00Z,28.1930,-82.7890,0.151,1111122 
COMPS,ioos:station:USF.COMPS:ANC:1,2009-07-02T01:00:00Z,28.1930,-82.7890,0.154,1111122 
COMPS,ioos:station:USF.COMPS:ANC:1,2009-07-02T01:06:00Z,28.1930,-82.7890,0.15,1111122 
COMPS,ioos:station:USF.COMPS:ANC:1,2009-07-02T01:12:00Z,28.1930,-82.7890,0.167,1111122 
COMPS,ioos:station:USF.COMPS:ANC:1,2009-07-02T01:18:00Z,28.1930,-82.7890,0.171,1111122 
COMPS,ioos:station:USF.COMPS:ANC:1,2009-07-02T01:24:00Z,28.1930,-82.7890,0.193,1111122 
COMPS,ioos:station:USF.COMPS:ANC:1,2009-07-02T01:30:00Z,28.1930,-82.7890,0.228,1111122 
COMPS,ioos:station:USF.COMPS:ANC:1,2009-07-02T01:36:00Z,28.1930,-82.7890,0.234,1111122 
COMPS,ioos:station:USF.COMPS:ANC:1,2009-07-02T01:42:00Z,28.1930,-82.7890,0.256,1111122 
COMPS,ioos:station:USF.COMPS:ANC:1,2009-07-02T01:48:00Z,28.1930,-82.7890,0.249,1111122 
COMPS,ioos:station:USF.COMPS:ANC:1,2009-07-02T01:54:00Z,28.1930,-82.7890,0.246,1111122 
COMPS,ioos:station:USF.COMPS:ANC:1,2009-07-02T02:00:00Z,28.1930,-82.7890,0.235,1111122 
COMPS,ioos:station:USF.COMPS:ANC:1,2009-07-02T02:06:00Z,28.1930,-82.7890,0.231,1111122 
COMPS,ioos:station:USF.COMPS:ANC:1,2009-07-02T02:12:00Z,28.1930,-82.7890,0.252,1111122 
COMPS,ioos:station:USF.COMPS:ANC:1,2009-07-02T02:18:00Z,28.1930,-82.7890,0.254,1111122 
COMPS,ioos:station:USF.COMPS:ANC:1,2009-07-02T02:24:00Z,28.1930,-82.7890,0.258,1111122 
COMPS,ioos:station:USF.COMPS:ANC:1,2009-07-02T02:30:00Z,28.1930,-82.7890,0.255,1111122 
COMPS,ioos:station:USF.COMPS:ANC:1,2009-07-02T02:36:00Z,28.1930,-82.7890,0.249,1111122 
COMPS,ioos:station:USF.COMPS:ANC:1,2009-07-02T02:42:00Z,28.1930,-82.7890,0.272,1111122 
COMPS,ioos:station:USF.COMPS:ANC:1,2009-07-02T02:48:00Z,28.1930,-82.7890,0.26,1111122 
COMPS,ioos:station:USF.COMPS:ANC:1,2009-07-02T02:54:00Z,28.1930,-82.7890,0.259,1111122 
COMPS,ioos:station:USF.COMPS:ANC:1,2009-07-02T03:00:00Z,28.1930,-82.7890,0.279,1111122 